星链-1789 (STARLINK-1789 )

导读 | 星芒AI

STARLINK-1789 是 SpaceX Starlink 项目中的一颗低轨通信卫星,属于第三代星链卫星(v1.5)系列。该卫星于2023年发射,旨在为全球用户提供高速互联网服务。它运行在约540公里的近地轨道,具备先进的相控阵天线和激光通信能力,以提升网络效率和覆盖范围。作为星链星座的一部分,STARLINK-1789 有助于增强偏远地区的网络连接,并支持星链系统的持续扩展与优化。

基本信息
目录编号:
46690
目录名称:
STARLINK-1789
国际标识:
2020-073W
轨道中心:
EARTH
卫星名称:
星链-1789
卫星全名:
星链-1789 (STARLINK-1789 )
卫星状态:
在轨 (已飞行1885 天)
发射日期:
2020-10-18 UTC
国别 :
美国 (US)
星等 :
--
轨道信息
数据来源 国际轨道数据
星历时间: 2025-12-16T08:00:03+0800
8小时前
查看轨道信息
半长轴: 6768.696km
偏心率: 0.0012034
轨道倾角: 53.049°
近地点辐角 78.293°
升交点赤经 223.003°
平近点角 316.840°
近地点: 382.415km
远地点: 398.707km
周期: 92.367分钟
每日圈数: 15.589971
详细信息
固有亮度:
5
最大亮度:
2.5
卫星平台:
Starlink V1.0
覆盖范围:
全球
运营商:
太空探索技术公司
运营商所在国:
美国
制造商(研发单位):
太空探索技术公司
制造商所在国:
美国
使用方式:
暂无
卫星简介
星链(Starlink)计划是由太空探索技术公司(SpaceX)提出的一个巨型低轨卫星互联网星座项目,计划在2019年至2024年间在太空搭建由约1.2万颗卫星组成的“星链”网络,其中1584颗将部署在地球上空550千米处的近地轨道,并从2020年开始工作。该卫星仍在工作。
2D轨道图
3D轨道图
轨道高度分析图
轨道倾角分析图
轨道综合分析图
查看轨道综合分析图